[[{"header":{"parameterUnit":"m.s-1","parameterCategory":2,"la1":30.2991,"la2":30.254,"lo1":-89.0895,"lo2":-89.0444,"dy":0.0017,"dx":0.0017,"nx":28,"ny":28,"refTime":"2024-03-24T21:00:00:Z","depth":"0","parameterNumber":2,"parameterNumberName":"U-component_of_CURRENTS"},"data":[0,0,0,0,0,0,0,0,0,0,0,0,0,0,0,0,0,0,0,0,0,0,0,0,0,0,0,0,0,0,0,0,0,0,0,0,0,0,0,0,0,0,0,0,0,0,0,0,0,0,0,0,0,0,0,0,0,0,-0.2514,-0.2513,0,-0.2463,-0.2463,-0.2462,-0.2458,-0.2459,-0.246,-0.2461,-0.2306,-0.2301,-0.2296,0,0,0,0,0,0,0,0,0,0,0,0,0,-0.2491,-0.2491,-0.2514,-0.2513,-0.2513,-0.2464,-0.2462,-0.2461,-0.2458,-0.2459,-0.246,-0.2461,-0.2308,-0.2302,-0.2296,0,0,0,0,0,0,0,0,0,0,0,0,0,-0.2472,-0.2492,-0.2514,-0.2509,-0.2509,-0.2464,-0.2462,-0.2461,-0.2458,-0.2459,-0.2461,-0.2462,-0.231,-0.2303,-0.2295,-0.2218,0,0,-0.2272,-0.2269,0,0,0,0,0,0,0,0,-0.2473,-0.2472,-0.251,-0.2509,-0.2509,-0.2473,-0.2398,-0.2376,-0.2457,-0.2472,-0.2461,-0.2463,-0.2354,-0.2343,-0.2325,-0.2211,-0.2204,-0.2271,-0.2267,-0.2263,-0.2261,0,0,0,0,0,0,0,-0.2475,-0.2474,-0.2489,-0.251,-0.2509,-0.247,-0.247,-0.2393,-0.2399,-0.2471,-0.2471,-0.2473,-0.2353,-0.2332,-0.2321,-0.2202,-0.2271,-0.2265,-0.226,-0.2257,-0.2082,-0.2082,0,0,0,0,0,0,-0.2495,-0.2476,-0.2491,-0.2488,-0.25,-0.247,-0.2469,-0.2479,-0.2403,-0.2395,-0.2472,-0.2473,-0.2345,-0.233,-0.2316,-0.2286,-0.2263,-0.2256,-0.2252,-0.2082,-0.2082,-0.2082,0,0,0,0,0,0,-0.2495,-0.2497,-0.2493,-0.2484,-0.2481,-0.2471,-0.248,-0.2477,-0.2467,-0.2406,-0.2395,-0.2467,-0.2345,-0.2326,-0.2267,-0.2277,-0.2253,-0.2246,-0.2083,-0.2082,-0.2082,-0.2183,0,0,0,0,0,0,-0.2495,-0.2498,-0.2498,-0.2486,-0.2483,-0.2484,-0.2479,-0.2475,-0.2467,-0.2469,-0.2397,-0.2384,-0.2345,-0.2279,-0.226,-0.2266,-0.224,-0.2083,-0.2082,-0.2082,-0.218,-0.2186,-0.2192,0,0,0,0,0,-0.2494,-0.2499,-0.2499,-0.25,-0.2489,-0.2485,-0.248,-0.2472,-0.2466,-0.2466,-0.2421,-0.2387,-0.2265,-0.2272,-0.225,-0.2255,-0.2083,-0.2083,-0.2082,-0.2177,-0.2185,-0.2192,0,0,0,0,0,0,-0.2483,-0.2499,-0.2499,-0.2506,-0.2504,-0.2487,-0.248,-0.2472,-0.2434,-0.243,-0.2372,-0.2355,-0.231,-0.2259,-0.2269,-0.2204,-0.2172,-0.2167,-0.2252,-0.2258,-0.2264,-0.2291,-0.2234,0,0,0,0,0,-0.2482,-0.2494,-0.2499,-0.2502,-0.2504,-0.2488,-0.248,-0.248,-0.2452,-0.2438,-0.239,-0.2334,-0.2286,-0.2258,-0.2201,-0.2151,-0.213,-0.2142,-0.2148,-0.2154,-0.216,-0.2134,-0.214,-0.2081,-0.2081,-0.2081,0,0,-0.2477,-0.2486,-0.2491,-0.25,-0.2492,-0.2502,-0.2486,-0.2485,-0.2491,-0.2421,-0.2395,-0.2344,-0.2276,-0.2239,-0.2214,-0.2201,-0.2164,-0.2153,-0.2159,-0.2162,-0.2135,-0.2141,-0.2146,-0.2081,-0.2081,-0.2081,0,0,-0.2479,-0.2483,-0.2497,-0.2503,-0.2508,-0.2504,-0.2509,-0.2496,-0.2491,-0.2457,-0.2419,-0.238,-0.229,-0.2265,-0.2235,-0.2231,-0.2195,-0.2209,-0.2262,-0.2238,-0.2244,-0.2248,-0.226,-0.2264,-0.2216,-0.2217,-0.2217,0,-0.2471,-0.2493,-0.2496,-0.2514,-0.2522,-0.2512,-0.2529,-0.252,-0.2489,-0.2478,-0.2463,-0.2361,-0.2308,-0.2277,-0.2291,-0.2247,-0.2237,-0.2246,-0.225,-0.2253,-0.2256,-0.2266,-0.227,-0.2221,-0.2221,-0.222,-0.222,0,-0.2486,-0.2507,-0.2514,-0.2541,-0.2548,-0.2558,-0.2564,-0.2559,-0.2543,-0.2527,-0.2489,-0.2425,-0.237,-0.2353,-0.2321,-0.2314,-0.2306,-0.2262,-0.2241,-0.2268,-0.2277,-0.2279,-0.2228,-0.2227,-0.2225,-0.2224,0,0,-0.246,-0.2517,-0.2518,-0.2542,-0.2566,-0.2574,-0.2591,-0.2596,-0.2606,-0.2565,-0.2561,-0.2498,-0.2465,-0.243,-0.2386,-0.2375,-0.24,-0.2339,-0.2335,-0.2369,-0.2378,-0.2409,-0.2413,-0.2359,-0.2359,-0.2359,-0.2389,0,-0.2467,-0.2515,-0.254,-0.2578,-0.2602,-0.2616,-0.2638,-0.2641,-0.2629,-0.2619,-0.2568,-0.2536,-0.2495,-0.2474,-0.2457,-0.24,-0.2404,-0.2397,-0.2329,-0.2327,-0.2366,-0.2416,-0.2435,-0.2465,-0.239,-0.2391,-0.2391,0,-0.2465,-0.2503,-0.2547,-0.2613,-0.2625,-0.2645,-0.2676,-0.269,-0.2685,-0.2677,-0.2645,-0.2604,-0.2577,-0.2533,-0.2482,-0.248,-0.2445,-0.2411,-0.241,-0.2402,-0.2361,-0.2416,-0.2471,-0.2483,-0.2393,-0.2393,-0.2393,0,-0.2433,-0.2503,-0.254,-0.2559,-0.2628,-0.2648,-0.2675,-0.2693,-0.271,-0.2703,-0.2707,-0.2665,-0.2635,-0.2586,-0.252,-0.2502,-0.247,-0.2425,-0.2429,-0.2431,-0.2415,-0.2416,-0.2486,-0.2402,-0.2402,-0.2402,-0.2402,0,-0.2423,-0.245,-0.2529,-0.2546,-0.2595,-0.264,-0.2678,-0.2701,-0.273,-0.2751,-0.2724,-0.2727,-0.2645,-0.2611,-0.2553,-0.2511,-0.2493,-0.246,-0.2442,-0.2454,-0.2458,-0.2437,-0.2415,-0.2403,-0.2403,-0.2402,-0.2402,0,-0.2374,-0.2424,-0.2474,-0.2556,-0.2579,-0.2605,-0.2685,-0.271,-0.2746,-0.2772,-0.2774,-0.2767,-0.2733,-0.2668,-0.2593,-0.2557,-0.25,-0.2495,-0.2539,-0.2526,-0.2549,-0.2529,-0.2499,-0.2475,-0.252,-0.2521,-0.2522,0,-0.2353,-0.2374,-0.2465,-0.2485,-0.2519,-0.2574,-0.2612,-0.2693,-0.2724,-0.2797,-0.28,-0.2798,-0.2782,-0.2712,-0.2648,-0.2587,-0.2529,-0.2582,-0.2546,-0.2582,-0.2546,-0.2481,-0.2457,-0.2575,-0.2576,-0.2577,-0.2578,0,-0.2298,-0.2328,-0.2352,-0.2421,-0.2465,-0.2534,-0.2595,-0.2641,-0.2734,-0.2769,-0.2814,-0.2817,-0.2798,-0.2761,-0.2705,-0.2646,-0.2577,-0.2602,-0.2609,-0.2587,-0.2546,-0.2503,-0.2547,-0.2586,-0.2585,-0.2585,-0.2584,-0.2584,-0.2222,-0.2235,-0.2267,-0.2318,-0.2381,-0.2453,-0.2432,-0.253,-0.2583,-0.258,-0.2754,-0.2718,-0.2832,-0.2754,-0.2726,-0.2711,-0.262,-0.2679,-0.2653,-0.2586,-0.2561,-0.2655,-0.2685,-0.2684,-0.2684,-0.2684,-0.2684,0,-0.2116,-0.2127,-0.2165,-0.221,-0.223,-0.231,-0.2368,-0.2282,-0.2274,-0.2387,-0.2426,-0.2633,-0.2713,-0.2766,-0.2838,-0.2789,-0.2702,-0.274,-0.2656,-0.2627,-0.2701,-0.2706,-0.2777,-0.2777,-0.2777,-0.2777,-0.2777,-0.2777,-0.2042,-0.2019,-0.2047,-0.2025,-0.2052,-0.1982,-0.1964,-0.1865,-0.1849,-0.1861,-0.1976,-0.2093,-0.2372,-0.2839,-0.292,-0.2853,-0.2742,-0.2699,-0.2652,-0.2729,-0.2721,-0.2714,-0.2716,-0.2788,-0.2788,-0.2565,-0.2564,-0.2562]},{"header":{"parameterUnit":"m.s-1","parameterCategory":2,"la1":30.2991,"la2":30.254,"lo1":-89.0895,"lo2":-89.0444,"dy":0.0017,"dx":0.0017,"nx":28,"ny":28,"refTime":"2024-03-24T21:00:00:Z","depth":"0","parameterNumber":3,"parameterNumberName":"V-component_of_CURRENTS"},"data":[0,0,0,0,0,0,0,0,0,0,0,0,0,0,0,0,0,0,0,0,0,0,0,0,0,0,0,0,0,0,0,0,0,0,0,0,0,0,0,0,0,0,0,0,0,0,0,0,0,0,0,0,0,0,0,0,0,0,-0.0108,-0.0107,0,-0.0017,-0.0016,-0.0015,0.0007,0.0006,0.0006,0.0005,0.0058,0.006,0.0062,0,0,0,0,0,0,0,0,0,0,0,0,0,-0.0209,-0.0208,-0.0108,-0.0107,-0.0106,-0.0017,-0.0016,-0.0015,0.0007,0.0006,0.0006,0.0005,0.0057,0.0059,0.0062,0,0,0,0,0,0,0,0,0,0,0,0,0,-0.0147,-0.0207,-0.0108,-0.0084,-0.0081,-0.0017,-0.0016,-0.0014,0.0007,0.0006,0.0005,0.0005,0.0056,0.0059,0.0062,0.0098,0,0,0.0071,0.0072,0,0,0,0,0,0,0,0,-0.015,-0.0143,-0.0089,-0.0086,-0.0082,-0.0017,-0.0032,0.0022,0.0007,-0.0027,0.0005,0.0004,0.003,0.0035,0.0054,0.0101,0.0103,0.0071,0.0073,0.0074,0.0075,0,0,0,0,0,0,0,-0.0155,-0.0146,-0.0072,-0.0087,-0.0083,-0.0059,-0.0052,-0.0021,0.0005,-0.0024,-0.0022,-0.0011,0.0031,0.0052,0.0056,0.0104,0.0071,0.0074,0.0076,0.0077,0.0196,0.0197,0,0,0,0,0,0,-0.0167,-0.0151,-0.0075,-0.0069,-0.0119,-0.0057,-0.0049,-0.0037,0.0005,0.0011,-0.001,-0.001,0.0047,0.0052,0.0058,0.0103,0.0074,0.0077,0.0079,0.0194,0.0196,0.0198,0,0,0,0,0,0,-0.017,-0.0161,-0.0079,-0.0108,-0.0096,-0.0055,-0.0042,-0.0035,-0.0019,0.0016,0.0021,-0.0002,0.0047,0.0053,0.0093,0.0105,0.0078,0.0081,0.0193,0.0195,0.0197,0.0193,0,0,0,0,0,0,-0.0173,-0.0163,-0.0163,-0.0109,-0.0095,-0.0049,-0.004,-0.0032,-0.0011,-0.001,0.0025,0.0029,0.0046,0.0089,0.0096,0.0108,0.0083,0.0191,0.0194,0.0196,0.0191,0.0195,0.0198,0,0,0,0,0,-0.0177,-0.0179,-0.0164,-0.0155,-0.0095,-0.0048,-0.0039,-0.0013,-0.001,-0.0002,0.0031,0.0028,0.011,0.0093,0.0101,0.0114,0.019,0.0193,0.0196,0.019,0.0194,0.0198,0,0,0,0,0,0,-0.0229,-0.0174,-0.0158,-0.0145,-0.0102,-0.0045,-0.0038,-0.0013,0.0021,0.0018,0.0049,0.0056,0.0097,0.0111,0.0091,0.0159,0.0149,0.0154,0.0141,0.0145,0.0149,0.0142,0.0086,0,0,0,0,0,-0.0238,-0.0223,-0.0165,-0.0156,-0.0136,-0.0086,-0.0065,-0.0042,-0.0002,0.0012,0.0044,0.0079,0.012,0.0134,0.017,0.0206,0.023,0.0221,0.0224,0.0226,0.0229,0.0285,0.0293,0.0208,0.0208,0.0208,0,0,-0.0259,-0.0225,-0.0219,-0.0165,-0.0132,-0.0103,-0.0076,-0.0047,-0.0018,0.0012,0.0053,0.0091,0.0134,0.0178,0.0196,0.0187,0.0265,0.023,0.0232,0.0233,0.0289,0.0297,0.0304,0.021,0.021,0.0209,0,0,-0.0293,-0.0258,-0.0259,-0.0218,-0.0166,-0.0125,-0.0117,-0.0055,-0.0027,0.0022,0.0058,0.011,0.0158,0.0205,0.023,0.0275,0.0282,0.0277,0.0282,0.0336,0.0343,0.035,0.0391,0.0401,0.0274,0.0274,0.0274,0,-0.0323,-0.0306,-0.0253,-0.0234,-0.0203,-0.0137,-0.0123,-0.0074,-0.0005,0.0028,0.0028,0.0143,0.0175,0.025,0.0265,0.0281,0.0304,0.026,0.0339,0.0346,0.0352,0.0393,0.0404,0.0274,0.0274,0.0274,0.0274,0,-0.0347,-0.033,-0.0324,-0.0274,-0.0234,-0.0208,-0.013,-0.0085,-0.0043,0.0011,0.0092,0.0157,0.0222,0.0245,0.0265,0.0337,0.0335,0.0337,0.0323,0.036,0.0401,0.0413,0.0274,0.0274,0.0274,0.0274,0,0,-0.0422,-0.0358,-0.0356,-0.0339,-0.025,-0.0223,-0.0159,-0.0081,-0.0038,0.0038,0.0099,0.0189,0.023,0.0264,0.031,0.036,0.0429,0.0361,0.0363,0.039,0.0538,0.0616,0.0636,0.0437,0.0439,0.0441,0.0546,0,-0.0459,-0.0456,-0.0392,-0.0369,-0.0359,-0.0257,-0.0203,-0.0119,-0.0039,0.004,0.0135,0.0205,0.0236,0.0268,0.0329,0.041,0.046,0.04,0.0507,0.0511,0.0567,0.0653,0.0758,0.0868,0.0558,0.056,0.0561,0,-0.0502,-0.0492,-0.0492,-0.042,-0.0403,-0.0367,-0.0261,-0.0201,-0.006,0.0003,0.0104,0.0184,0.0297,0.0302,0.046,0.0416,0.0473,0.0529,0.0534,0.0617,0.0612,0.0783,0.0901,0.1085,0.0579,0.0578,0.0576,0,-0.0599,-0.0554,-0.0561,-0.0535,-0.0445,-0.0413,-0.0357,-0.0226,-0.0159,-0.002,0.0043,0.0186,0.0265,0.0364,0.0502,0.0474,0.0665,0.0641,0.0767,0.0771,0.089,0.0903,0.1193,0.074,0.0739,0.0739,0.0739,0,-0.0658,-0.0662,-0.0612,-0.0611,-0.0607,-0.0504,-0.0454,-0.037,-0.0228,-0.0133,0.0006,0.0124,0.0283,0.0424,0.0513,0.0702,0.068,0.0796,0.0821,0.0893,0.0904,0.1091,0.1127,0.0743,0.0742,0.0741,0.0741,0,-0.076,-0.0725,-0.0734,-0.0671,-0.0657,-0.0656,-0.0539,-0.0485,-0.0342,-0.021,-0.0164,0.0082,0.0292,0.0453,0.0644,0.0736,0.0998,0.0941,0.1016,0.105,0.1334,0.1364,0.1605,0.1656,0.1104,0.1107,0.111,0,-0.0808,-0.0832,-0.0813,-0.0828,-0.0802,-0.0773,-0.0739,-0.0583,-0.0495,-0.0213,-0.0149,0.0106,0.0339,0.0665,0.0871,0.1075,0.1136,0.1257,0.1236,0.1407,0.1457,0.1442,0.1464,0.1386,0.1391,0.1395,0.1398,0,-0.0901,-0.09,-0.0907,-0.0959,-0.0949,-0.0909,-0.0833,-0.0768,-0.0538,-0.0364,-0.0065,0.0157,0.0538,0.0921,0.1184,0.1266,0.1405,0.1337,0.1513,0.1721,0.1726,0.1767,0.1238,0.143,0.1427,0.1424,0.1423,0.1421,-0.0968,-0.1012,-0.1034,-0.1075,-0.107,-0.1015,-0.0943,-0.0789,-0.0599,-0.0238,-0.0032,0.0421,0.0962,0.14,0.1508,0.1814,0.1667,0.1907,0.1931,0.1901,0.1969,0.1509,0.1726,0.1725,0.1724,0.1722,0.1721,0,-0.1038,-0.1083,-0.1142,-0.1157,-0.1155,-0.1114,-0.0972,-0.0826,-0.056,-0.0185,0.0169,0.0959,0.1483,0.1883,0.2333,0.2456,0.2378,0.2482,0.2511,0.2499,0.2131,0.2166,0.2492,0.2491,0.2491,0.2491,0.2491,0.2491,-0.1075,-0.1156,-0.119,-0.1222,-0.1209,-0.1086,-0.0977,-0.0749,-0.0455,0.0193,0.0746,0.1123,0.1786,0.2672,0.3081,0.3025,0.3071,0.3039,0.3025,0.2824,0.2772,0.2723,0.2772,0.3219,0.322,0.3398,0.34,0.3402]}],[{"header":{"parameterUnit":"m.s-1","parameterCategory":2,"la1":30.2991,"la2":30.254,"lo1":-89.0895,"lo2":-89.0444,"dy":0.0017,"dx":0.0017,"nx":28,"ny":28,"refTime":"2024-03-24T21:00:00:Z","depth":"2","parameterNumber":2,"parameterNumberName":"U-component_of_CURRENTS"},"data":[0,0,0,0,0,0,0,0,0,0,0,0,0,0,0,0,0,0,0,0,0,0,0,0,0,0,0,0,0,0,0,0,0,0,0,0,0,0,0,0,0,0,0,0,0,0,0,0,0,0,0,0,0,0,0,0,0,0,-0.2459,-0.2459,0,-0.241,-0.2409,-0.2408,-0.2406,-0.2407,-0.2408,-0.2409,-0.2257,-0.2252,-0.2247,0,0,0,0,0,0,0,0,0,0,0,0,0,-0.2437,-0.2437,-0.2459,-0.2459,-0.2459,-0.241,-0.2409,-0.2408,-0.2406,-0.2407,-0.2409,-0.241,-0.2259,-0.2253,-0.2247,0,0,0,0,0,0,0,0,0,0,0,0,0,-0.2418,-0.2437,-0.2459,-0.2456,-0.2455,-0.2411,-0.2409,-0.2408,-0.2406,-0.2407,-0.2409,-0.241,-0.2261,-0.2254,-0.2246,-0.2169,0,0,-0.2223,-0.222,0,0,0,0,0,0,0,0,-0.242,-0.2419,-0.2457,-0.2456,-0.2456,-0.242,-0.2346,-0.2324,-0.2405,-0.2419,-0.2409,-0.2411,-0.2304,-0.2293,-0.2275,-0.2162,-0.2155,-0.2222,-0.2218,-0.2215,-0.2213,0,0,0,0,0,0,0,-0.2421,-0.242,-0.2435,-0.2456,-0.2456,-0.2418,-0.2417,-0.2341,-0.2348,-0.2418,-0.2419,-0.2421,-0.2303,-0.2282,-0.2271,-0.2153,-0.2223,-0.2216,-0.2211,-0.2208,-0.2035,-0.2035,0,0,0,0,0,0,-0.2441,-0.2422,-0.2437,-0.2434,-0.2446,-0.2418,-0.2417,-0.2426,-0.2351,-0.2344,-0.242,-0.2421,-0.2295,-0.228,-0.2266,-0.2237,-0.2215,-0.2208,-0.2203,-0.2035,-0.2035,-0.2035,0,0,0,0,0,0,-0.2441,-0.2443,-0.2439,-0.243,-0.2428,-0.2418,-0.2427,-0.2424,-0.2415,-0.2354,-0.2344,-0.2416,-0.2295,-0.2276,-0.2218,-0.2229,-0.2204,-0.2198,-0.2035,-0.2035,-0.2035,-0.2135,0,0,0,0,0,0,-0.2441,-0.2444,-0.2444,-0.2432,-0.2429,-0.2431,-0.2426,-0.2422,-0.2416,-0.2417,-0.2346,-0.2334,-0.2295,-0.223,-0.2211,-0.2218,-0.2192,-0.2035,-0.2035,-0.2035,-0.2132,-0.2139,-0.2144,0,0,0,0,0,-0.244,-0.2445,-0.2445,-0.2446,-0.2436,-0.2432,-0.2426,-0.242,-0.2414,-0.2414,-0.237,-0.2337,-0.2216,-0.2223,-0.2201,-0.2206,-0.2035,-0.2035,-0.2035,-0.2129,-0.2137,-0.2144,0,0,0,0,0,0,-0.2429,-0.2445,-0.2445,-0.2453,-0.2451,-0.2434,-0.2427,-0.242,-0.2383,-0.2379,-0.2322,-0.2306,-0.2261,-0.2211,-0.2221,-0.2155,-0.2124,-0.2119,-0.2203,-0.221,-0.2216,-0.2243,-0.2185,0,0,0,0,0,-0.2429,-0.244,-0.2446,-0.2448,-0.2451,-0.2435,-0.2428,-0.2428,-0.24,-0.2387,-0.2339,-0.2285,-0.2237,-0.2209,-0.2153,-0.2103,-0.2082,-0.2094,-0.21,-0.2106,-0.2112,-0.2086,-0.2092,-0.2034,-0.2034,-0.2034,0,0,-0.2424,-0.2433,-0.2438,-0.2447,-0.2439,-0.2449,-0.2434,-0.2433,-0.2439,-0.237,-0.2345,-0.2294,-0.2227,-0.219,-0.2165,-0.2152,-0.2116,-0.2105,-0.2111,-0.2114,-0.2087,-0.2093,-0.2098,-0.2034,-0.2034,-0.2034,0,0,-0.2426,-0.243,-0.2444,-0.245,-0.2455,-0.2451,-0.2457,-0.2444,-0.2439,-0.2406,-0.2369,-0.2331,-0.2241,-0.2216,-0.2186,-0.2182,-0.2146,-0.2161,-0.2214,-0.219,-0.2195,-0.2199,-0.2211,-0.2215,-0.2168,-0.2168,-0.2168,0,-0.2418,-0.244,-0.2443,-0.2461,-0.2469,-0.246,-0.2477,-0.2467,-0.2437,-0.2427,-0.2412,-0.2312,-0.2259,-0.2228,-0.2242,-0.2198,-0.2189,-0.2198,-0.2201,-0.2204,-0.2207,-0.2217,-0.2221,-0.2173,-0.2172,-0.2172,-0.2171,0,-0.2433,-0.2454,-0.2461,-0.2488,-0.2495,-0.2505,-0.2511,-0.2507,-0.2491,-0.2476,-0.2438,-0.2375,-0.2321,-0.2304,-0.2272,-0.2265,-0.2257,-0.2213,-0.2192,-0.222,-0.2228,-0.223,-0.218,-0.2178,-0.2177,-0.2176,0,0,-0.2407,-0.2464,-0.2465,-0.2489,-0.2513,-0.2521,-0.2538,-0.2543,-0.2553,-0.2513,-0.251,-0.2447,-0.2415,-0.238,-0.2337,-0.2325,-0.235,-0.229,-0.2286,-0.232,-0.2328,-0.2358,-0.2363,-0.2309,-0.2309,-0.231,-0.2339,0,-0.2415,-0.2462,-0.2487,-0.2525,-0.2549,-0.2562,-0.2584,-0.2588,-0.2576,-0.2567,-0.2516,-0.2485,-0.2444,-0.2424,-0.2407,-0.2351,-0.2354,-0.2348,-0.2279,-0.2278,-0.2316,-0.2365,-0.2124,-0.2132,-0.2341,-0.2341,-0.2341,0,-0.2413,-0.245,-0.2494,-0.2559,-0.2571,-0.2592,-0.2622,-0.2636,-0.2631,-0.2624,-0.2593,-0.2552,-0.2526,-0.2483,-0.2431,-0.243,-0.2395,-0.2361,-0.236,-0.2352,-0.2311,-0.2129,-0.2128,-0.2344,-0.2344,-0.2343,-0.2343,0,-0.2381,-0.2451,-0.2487,-0.2506,-0.2575,-0.2595,-0.2621,-0.264,-0.2657,-0.2651,-0.2655,-0.2613,-0.2584,-0.2535,-0.247,-0.2452,-0.2419,-0.2375,-0.2378,-0.238,-0.2143,-0.2125,-0.2352,-0.2352,-0.2352,-0.2352,-0.2351,0,-0.2371,-0.2398,-0.2477,-0.2493,-0.2542,-0.2587,-0.2626,-0.2649,-0.2677,-0.2698,-0.2672,-0.2675,-0.2594,-0.256,-0.2502,-0.246,-0.2442,-0.2409,-0.2391,-0.2176,-0.2161,-0.2303,-0.2297,-0.2353,-0.2352,-0.2352,-0.2352,0,-0.2323,-0.2372,-0.2423,-0.2504,-0.2527,-0.2554,-0.2633,-0.2658,-0.2694,-0.2721,-0.2722,-0.2715,-0.2681,-0.2617,-0.2542,-0.2505,-0.2456,-0.2443,-0.2228,-0.2186,-0.2432,-0.2431,-0.2464,-0.2466,-0.2467,-0.2468,-0.2468,0,-0.2303,-0.2324,-0.2414,-0.2434,-0.2468,-0.2523,-0.2561,-0.2641,-0.2673,-0.2745,-0.2748,-0.2745,-0.2717,-0.2646,-0.2518,-0.2439,-0.2489,-0.2258,-0.2187,-0.2466,-0.2444,-0.2441,-0.2438,-0.191,-0.1906,-0.1903,-0.1901,0,-0.2248,-0.2279,-0.2303,-0.2371,-0.2415,-0.2483,-0.2544,-0.2589,-0.2682,-0.2699,-0.2743,-0.2734,-0.266,-0.2458,-0.2375,-0.2294,-0.2255,-0.2202,-0.2496,-0.1952,-0.1954,-0.193,-0.1942,-0.1873,-0.1875,-0.1878,-0.1879,-0.188,-0.2173,-0.2186,-0.2219,-0.2269,-0.2332,-0.2403,-0.2383,-0.2402,-0.2427,-0.2332,-0.2575,-0.2399,-0.2419,-0.2094,-0.2052,-0.1978,-0.212,-0.2035,-0.2039,-0.2047,-0.201,-0.2017,-0.1942,-0.1945,-0.1948,-0.195,-0.1953,0,-0.2041,-0.208,-0.2117,-0.2162,-0.2132,-0.2262,-0.2319,-0.2174,-0.2046,-0.202,-0.1964,-0.179,-0.1723,-0.1729,-0.1567,-0.1643,-0.1541,-0.1616,-0.1455,-0.1485,-0.151,-0.144,-0.1225,-0.1223,-0.1221,-0.122,0,0,-0.1961,-0.1923,-0.195,-0.1889,-0.1946,-0.1784,-0.1765,-0.1626,-0.1489,-0.1226,-0.1109,-0.128,-0.1512,-0.1249,-0.1315,-0.1227,-0.1296,-0.1159,-0.1728,-0.1549,-0.1571,-0.1741,-0.1667,0,0,0,0,0]},{"header":{"parameterUnit":"m.s-1","parameterCategory":2,"la1":30.2991,"la2":30.254,"lo1":-89.0895,"lo2":-89.0444,"dy":0.0017,"dx":0.0017,"nx":28,"ny":28,"refTime":"2024-03-24T21:00:00:Z","depth":"2","parameterNumber":3,"parameterNumberName":"V-component_of_CURRENTS"},"data":[0,0,0,0,0,0,0,0,0,0,0,0,0,0,0,0,0,0,0,0,0,0,0,0,0,0,0,0,0,0,0,0,0,0,0,0,0,0,0,0,0,0,0,0,0,0,0,0,0,0,0,0,0,0,0,0,0,0,-0.0136,-0.0135,0,-0.0045,-0.0044,-0.0043,-0.0021,-0.0021,-0.0022,-0.0023,0.003,0.0032,0.0034,0,0,0,0,0,0,0,0,0,0,0,0,0,-0.0237,-0.0236,-0.0136,-0.0135,-0.0134,-0.0045,-0.0044,-0.0043,-0.0021,-0.0021,-0.0022,-0.0023,0.003,0.0032,0.0034,0,0,0,0,0,0,0,0,0,0,0,0,0,-0.0175,-0.0235,-0.0137,-0.0112,-0.0109,-0.0046,-0.0044,-0.0043,-0.0021,-0.0021,-0.0022,-0.0023,0.0029,0.0032,0.0035,0.007,0,0,0.0044,0.0045,0,0,0,0,0,0,0,0,-0.0179,-0.0171,-0.0117,-0.0114,-0.011,-0.0045,-0.006,-0.0007,-0.002,-0.0054,-0.0023,-0.0024,0.0002,0.0007,0.0027,0.0072,0.0075,0.0044,0.0046,0.0047,0.0048,0,0,0,0,0,0,0,-0.0183,-0.0175,-0.0101,-0.0116,-0.0111,-0.0087,-0.008,-0.005,-0.0023,-0.0052,-0.005,-0.0039,0.0004,0.0024,0.0028,0.0075,0.0044,0.0046,0.0048,0.0049,0.0168,0.0169,0,0,0,0,0,0,-0.0195,-0.0179,-0.0103,-0.0098,-0.0147,-0.0085,-0.0077,-0.0065,-0.0023,-0.0017,-0.0038,-0.0038,0.0019,0.0025,0.003,0.0075,0.0047,0.005,0.0051,0.0166,0.0168,0.0169,0,0,0,0,0,0,-0.0198,-0.0189,-0.0107,-0.0136,-0.0124,-0.0083,-0.007,-0.0063,-0.0047,-0.0012,-0.0007,-0.003,0.0019,0.0026,0.0066,0.0077,0.0051,0.0053,0.0165,0.0167,0.0169,0.0165,0,0,0,0,0,0,-0.0201,-0.0191,-0.0192,-0.0137,-0.0123,-0.0077,-0.0069,-0.0061,-0.0039,-0.0038,-0.0003,0.0001,0.0019,0.0061,0.0068,0.0081,0.0056,0.0163,0.0166,0.0168,0.0163,0.0167,0.0169,0,0,0,0,0,-0.0205,-0.0207,-0.0192,-0.0183,-0.0124,-0.0077,-0.0068,-0.0041,-0.0038,-0.003,0.0003,0.0,0.0083,0.0065,0.0073,0.0086,0.0162,0.0165,0.0168,0.0162,0.0166,0.0169,0,0,0,0,0,0,-0.0257,-0.0203,-0.0186,-0.0173,-0.013,-0.0074,-0.0066,-0.0042,-0.0007,-0.001,0.0021,0.0029,0.0069,0.0083,0.0063,0.0131,0.0121,0.0126,0.0114,0.0118,0.0121,0.0114,0.0058,0,0,0,0,0,-0.0266,-0.0252,-0.0193,-0.0184,-0.0165,-0.0114,-0.0094,-0.007,-0.003,-0.0016,0.0016,0.0051,0.0092,0.0106,0.0142,0.0178,0.0202,0.0193,0.0196,0.0198,0.02,0.0256,0.0264,0.018,0.018,0.018,0,0,-0.0287,-0.0253,-0.0247,-0.0194,-0.0161,-0.0132,-0.0105,-0.0075,-0.0047,-0.0015,0.0026,0.0063,0.0106,0.015,0.0168,0.0159,0.0236,0.0202,0.0203,0.0205,0.026,0.0268,0.0275,0.0182,0.0181,0.0181,0,0,-0.0321,-0.0286,-0.0287,-0.0246,-0.0194,-0.0153,-0.0145,-0.0083,-0.0055,-0.0005,0.003,0.0082,0.013,0.0176,0.0202,0.0246,0.0254,0.0248,0.0254,0.0307,0.0314,0.0321,0.0362,0.0372,0.0245,0.0245,0.0245,0,-0.0351,-0.0333,-0.0281,-0.0261,-0.0231,-0.0165,-0.0151,-0.0102,-0.0033,-0.0,-0.0,0.0115,0.0147,0.0221,0.0236,0.0252,0.0275,0.0231,0.031,0.0317,0.0323,0.0364,0.0375,0.0245,0.0245,0.0245,0.0245,0,-0.0374,-0.0357,-0.0351,-0.0301,-0.0261,-0.0236,-0.0158,-0.0113,-0.007,-0.0017,0.0064,0.0129,0.0193,0.0217,0.0237,0.0308,0.0306,0.0308,0.0294,0.0331,0.0372,0.0384,0.0246,0.0246,0.0246,0.0245,0,0,-0.0449,-0.0385,-0.0383,-0.0366,-0.0277,-0.025,-0.0187,-0.0109,-0.0066,0.001,0.007,0.016,0.0201,0.0235,0.0281,0.0331,0.04,0.0332,0.0334,0.0361,0.0508,0.0583,0.0603,0.0408,0.041,0.0412,0.0516,0,-0.0485,-0.0482,-0.0419,-0.0396,-0.0386,-0.0284,-0.0231,-0.0147,-0.0068,0.0012,0.0106,0.0176,0.0208,0.024,0.03,0.0381,0.043,0.037,0.0478,0.0481,0.0535,0.062,0.0451,0.0538,0.0528,0.053,0.0531,0,-0.0527,-0.0518,-0.0518,-0.0447,-0.0429,-0.0394,-0.0288,-0.0228,-0.0088,-0.0026,0.0076,0.0155,0.0268,0.0273,0.043,0.0387,0.0443,0.0499,0.0504,0.0584,0.058,0.0502,0.0559,0.0551,0.0549,0.0548,0.0546,0,-0.0624,-0.0579,-0.0586,-0.056,-0.047,-0.0439,-0.0383,-0.0253,-0.0187,-0.0048,0.0014,0.0157,0.0236,0.0334,0.0471,0.0445,0.0634,0.061,0.0733,0.0738,0.0624,0.0617,0.0709,0.0709,0.0708,0.0708,0.0708,0,-0.0682,-0.0687,-0.0637,-0.0636,-0.0632,-0.053,-0.0479,-0.0397,-0.0256,-0.0162,-0.0023,0.0093,0.0253,0.0394,0.0482,0.0669,0.0649,0.0762,0.0787,0.0621,0.0613,0.064,0.0631,0.0712,0.0711,0.071,0.071,0,-0.0783,-0.0749,-0.0758,-0.0695,-0.0681,-0.0681,-0.0565,-0.0511,-0.0369,-0.0239,-0.0193,0.0051,0.026,0.0421,0.0611,0.0702,0.085,0.0906,0.0708,0.071,0.0905,0.0894,0.1059,0.1063,0.1066,0.1069,0.1071,0,-0.0832,-0.0855,-0.0836,-0.0851,-0.0826,-0.0797,-0.0764,-0.0609,-0.0522,-0.0243,-0.018,0.0072,0.029,0.0614,0.0749,0.0931,0.0957,0.0933,0.0875,0.0943,0.0949,0.0933,0.0918,0.0703,0.0703,0.0702,0.0701,0,-0.0924,-0.0923,-0.093,-0.0982,-0.0972,-0.0934,-0.0858,-0.0795,-0.0567,-0.0413,-0.0117,0.009,0.0406,0.0605,0.0838,0.0905,0.0895,0.0932,0.1052,0.0668,0.0624,0.0625,0.0619,0.0695,0.0696,0.0696,0.0696,0.0697,-0.099,-0.1035,-0.1056,-0.1097,-0.1093,-0.1041,-0.097,-0.0898,-0.0737,-0.051,-0.0213,0.0052,0.0333,0.0602,0.078,0.0888,0.0925,0.0926,0.092,0.0916,0.0884,0.0852,0.0957,0.0959,0.0961,0.0962,0.0964,0,-0.1062,-0.1105,-0.1164,-0.118,-0.1194,-0.1139,-0.1,-0.0928,-0.0788,-0.0643,-0.0405,-0.0082,0.0171,0.046,0.0618,0.0812,0.0703,0.0837,0.0652,0.0656,0.0661,0.0609,0.0613,0.0613,0.0613,0.0614,0,0,-0.1099,-0.1181,-0.1215,-0.1265,-0.1251,-0.122,-0.1115,-0.0994,-0.0886,-0.0756,-0.0595,-0.0373,0.0117,0.0178,0.0394,0.0507,0.0505,0.0472,0.0716,0.0465,0.0467,0.0665,0.0587,0,0,0,0,0]}],[{"header":{"parameterUnit":"m.s-1","parameterCategory":2,"la1":30.2991,"la2":30.254,"lo1":-89.0895,"lo2":-89.0444,"dy":0.0017,"dx":0.0017,"nx":28,"ny":28,"refTime":"2024-03-24T21:00:00:Z","depth":"4","parameterNumber":2,"parameterNumberName":"U-component_of_CURRENTS"},"data":[0,0,0,0,0,0,0,0,0,0,0,0,0,0,0,0,0,0,0,0,0,0,0,0,0,0,0,0,0,0,0,0,0,0,0,0,0,0,0,0,0,0,0,0,0,0,0,0,0,0,0,0,0,0,0,0,0,0,-0.1218,-0.1218,0,-0.1223,-0.1223,-0.1223,-0.1244,-0.1245,-0.1246,-0.1246,-0.119,-0.1187,-0.1185,0,0,0,0,0,0,0,0,0,0,0,0,0,-0.1158,-0.1159,-0.1218,-0.1218,-0.1219,-0.1223,-0.1223,-0.1223,-0.1244,-0.1245,-0.1246,-0.1247,-0.119,-0.1188,-0.1185,0,0,0,0,0,0,0,0,0,0,0,0,0,-0.1172,-0.116,-0.1218,-0.1233,-0.1235,-0.1223,-0.1223,-0.1223,-0.1243,-0.1245,-0.1246,-0.1247,-0.1191,-0.1188,-0.1185,-0.1137,0,0,-0.1174,-0.1172,0,0,0,0,0,0,0,0,-0.1171,-0.1174,-0.123,-0.1232,-0.1234,-0.1238,-0.1181,-0.1192,-0.1243,-0.1236,-0.1246,-0.1248,-0.1202,-0.1198,-0.1191,-0.1135,-0.1132,-0.1174,-0.1172,-0.117,-0.1169,0,0,0,0,0,0,0,-0.117,-0.1173,-0.1216,-0.1231,-0.1233,-0.1216,-0.122,-0.1183,-0.1207,-0.1236,-0.1239,-0.1246,-0.1202,-0.1194,-0.1189,-0.1131,-0.1174,-0.1171,-0.1169,-0.1167,-0.1107,-0.1107,0,0,0,0,0,0,-0.118,-0.1173,-0.1216,-0.1217,-0.121,-0.1217,-0.1221,-0.1232,-0.1209,-0.1208,-0.1245,-0.1247,-0.1199,-0.1193,-0.1187,-0.1219,-0.117,-0.1167,-0.1165,-0.1106,-0.1107,-0.1107,0,0,0,0,0,0,-0.1179,-0.1184,-0.1216,-0.1198,-0.1201,-0.1218,-0.1229,-0.1231,-0.1254,-0.1217,-0.1214,-0.127,-0.12,-0.1192,-0.1187,-0.1213,-0.1165,-0.1162,-0.1106,-0.1106,-0.1107,-0.1224,0,0,0,0,0,0,-0.1177,-0.1184,-0.1202,-0.1199,-0.1203,-0.1237,-0.1229,-0.1231,-0.1256,-0.126,-0.1236,-0.1231,-0.12,-0.1193,-0.1184,-0.1208,-0.1159,-0.1105,-0.1106,-0.1107,-0.122,-0.1229,-0.1237,0,0,0,0,0,-0.1175,-0.1196,-0.1203,-0.1209,-0.1225,-0.1239,-0.124,-0.1251,-0.1257,-0.1275,-0.126,-0.1233,-0.1192,-0.119,-0.118,-0.1204,-0.1105,-0.1106,-0.1107,-0.1216,-0.1227,-0.1237,0,0,0,0,0,0,-0.1178,-0.12,-0.1208,-0.1235,-0.125,-0.1245,-0.1263,-0.1267,-0.1268,-0.1277,-0.1238,-0.1232,-0.1236,-0.1197,-0.1197,-0.1186,-0.1143,-0.1142,-0.123,-0.1239,-0.1248,-0.1268,-0.1157,0,0,0,0,0,-0.1187,-0.1212,-0.1225,-0.1249,-0.1261,-0.1265,-0.1275,-0.1286,-0.1284,-0.1288,-0.1273,-0.1248,-0.1224,-0.1218,-0.1189,-0.1181,-0.1158,-0.1187,-0.1196,-0.1204,-0.1212,-0.1191,-0.1199,-0.1111,-0.1111,-0.1111,0,0,-0.1193,-0.121,-0.1224,-0.1252,-0.1262,-0.1289,-0.1275,-0.1304,-0.1329,-0.1277,-0.1306,-0.1277,-0.1228,-0.1228,-0.1226,-0.1206,-0.1222,-0.1205,-0.1212,-0.1216,-0.1193,-0.1202,-0.121,-0.1112,-0.1111,-0.1111,0,0,-0.1214,-0.1236,-0.1264,-0.1285,-0.1317,-0.1321,-0.1339,-0.1354,-0.1369,-0.1383,-0.1354,-0.1347,-0.1312,-0.1291,-0.127,-0.1301,-0.1266,-0.1291,-0.1354,-0.1336,-0.1343,-0.135,-0.1361,-0.1367,-0.1297,-0.1298,-0.1298,0,-0.1222,-0.126,-0.1274,-0.1307,-0.1332,-0.1343,-0.1379,-0.1391,-0.1405,-0.1412,-0.141,-0.1372,-0.1341,-0.1332,-0.1354,-0.1323,-0.1316,-0.1326,-0.135,-0.1355,-0.1359,-0.1369,-0.1374,-0.1303,-0.1303,-0.1302,-0.1302,0,-0.1256,-0.1299,-0.1319,-0.1368,-0.1395,-0.1429,-0.1453,-0.148,-0.1495,-0.1497,-0.1506,-0.1468,-0.1445,-0.1437,-0.141,-0.1424,-0.1413,-0.1365,-0.1332,-0.1376,-0.1383,-0.1386,-0.1312,-0.131,-0.1308,-0.1307,0,0,-0.1236,-0.1327,-0.1336,-0.1376,-0.1433,-0.1456,-0.1505,-0.1539,-0.1569,-0.1577,-0.16,-0.1576,-0.1561,-0.1536,-0.1501,-0.1495,-0.1536,-0.146,-0.1457,-0.1487,-0.1526,-0.1454,-0.1451,-0.1498,-0.1499,-0.1499,-0.153,0,-0.1259,-0.1335,-0.1376,-0.1451,-0.1491,-0.153,-0.1574,-0.1608,-0.1627,-0.1652,-0.1624,-0.1628,-0.1596,-0.1595,-0.1586,-0.1537,-0.1546,-0.1534,-0.1464,-0.1462,-0.1406,-0.1452,-0.1501,-0.1532,-0.1533,-0.1533,-0.1534,0,-0.1267,-0.1323,-0.1403,-0.15,-0.1522,-0.157,-0.164,-0.1681,-0.1713,-0.1727,-0.173,-0.1709,-0.1708,-0.1668,-0.1634,-0.1631,-0.16,-0.1566,-0.1565,-0.1456,-0.1396,-0.1467,-0.1539,-0.1539,-0.1538,-0.1538,-0.1538,0,-0.1227,-0.1337,-0.1404,-0.1437,-0.1545,-0.1591,-0.1645,-0.1698,-0.1734,-0.1774,-0.1795,-0.1784,-0.1777,-0.1737,-0.1678,-0.1665,-0.1636,-0.1594,-0.1507,-0.1503,-0.1507,-0.1499,-0.158,-0.158,-0.158,-0.158,-0.158,0,-0.1215,-0.1271,-0.1398,-0.1433,-0.1514,-0.1591,-0.1668,-0.1714,-0.1777,-0.1807,-0.1829,-0.1831,-0.1794,-0.1766,-0.1711,-0.1624,-0.1659,-0.1533,-0.1502,-0.1559,-0.1556,-0.1512,-0.1503,-0.1581,-0.1581,-0.158,-0.158,0,-0.115,-0.1236,-0.1322,-0.1455,-0.1498,-0.1552,-0.168,-0.1717,-0.1797,-0.1836,-0.1852,-0.1874,-0.1838,-0.1798,-0.1731,-0.1656,-0.1583,-0.1544,-0.1645,-0.1616,-0.1465,-0.1462,-0.1461,-0.1458,-0.1456,-0.1455,-0.1453,0,-0.1124,-0.1163,-0.1317,-0.1356,-0.1421,-0.152,-0.1574,-0.1699,-0.1731,-0.1837,-0.1827,-0.185,-0.1841,-0.1694,-0.1668,-0.1582,-0.1544,-0.1524,-0.147,-0.1482,-0.1451,-0.1452,-0.1452,-0.145,-0.145,-0.1449,-0.1449,0,-0.1059,-0.1123,-0.1181,-0.1272,-0.1347,-0.1425,-0.1513,-0.1538,-0.1662,-0.1775,-0.1757,-0.1734,-0.1698,-0.1627,-0.1579,-0.1508,-0.1544,-0.1503,-0.1506,-0.1455,-0.1468,-0.1441,-0.1443,-0.1442,-0.1443,-0.1443,-0.1444,0,-0.0991,-0.1012,-0.1087,-0.1148,-0.1236,-0.1265,-0.1354,-0.1402,-0.1467,-0.1608,-0.1602,-0.1623,-0.1683,-0.159,-0.1537,-0.1475,-0.1439,-0.1381,-0.139,-0.1398,-0.1356,-0.1363,-0.1289,0,0,0,0,0,-0.0913,-0.0903,-0.0951,-0.0995,-0.1075,-0.1112,-0.1266,-0.1355,-0.151,-0.1464,-0.1533,-0.1499,-0.1451,-0.146,-0.137,-0.148,-0.1422,-0.1372,-0.1357,-0.1403,-0.1411,-0.1365,0,0,0,0,0,0,-0.0847,-0.0875,-0.0893,-0.0841,-0.0825,-0.0891,-0.0977,-0.1094,-0.1091,-0.1261,-0.1231,-0.1381,-0.1332,-0.1431,-0.131,-0.1317,-0.1279,-0.1414,-0.1411,-0.1399,-0.1406,-0.1412,-0.1368,0,0,0,0,0]},{"header":{"parameterUnit":"m.s-1","parameterCategory":2,"la1":30.2991,"la2":30.254,"lo1":-89.0895,"lo2":-89.0444,"dy":0.0017,"dx":0.0017,"nx":28,"ny":28,"refTime":"2024-03-24T21:00:00:Z","depth":"4","parameterNumber":3,"parameterNumberName":"V-component_of_CURRENTS"},"data":[0,0,0,0,0,0,0,0,0,0,0,0,0,0,0,0,0,0,0,0,0,0,0,0,0,0,0,0,0,0,0,0,0,0,0,0,0,0,0,0,0,0,0,0,0,0,0,0,0,0,0,0,0,0,0,0,0,0,-0.0334,-0.0333,0,-0.027,-0.0269,-0.0269,-0.0257,-0.0257,-0.0258,-0.0258,-0.023,-0.0229,-0.0228,0,0,0,0,0,0,0,0,0,0,0,0,0,-0.0399,-0.0398,-0.0334,-0.0333,-0.0332,-0.027,-0.0269,-0.0269,-0.0256,-0.0257,-0.0258,-0.0258,-0.0231,-0.0229,-0.0228,0,0,0,0,0,0,0,0,0,0,0,0,0,-0.0357,-0.0398,-0.0334,-0.0319,-0.0317,-0.027,-0.0269,-0.0268,-0.0256,-0.0257,-0.0258,-0.0259,-0.0231,-0.0229,-0.0228,-0.0201,0,0,-0.0222,-0.0221,0,0,0,0,0,0,0,0,-0.0359,-0.0354,-0.0322,-0.032,-0.0318,-0.0272,-0.0282,-0.0248,-0.0256,-0.0279,-0.0258,-0.0259,-0.0247,-0.0244,-0.023,-0.0199,-0.0198,-0.0222,-0.0221,-0.022,-0.0219,0,0,0,0,0,0,0,-0.0362,-0.0357,-0.0309,-0.0321,-0.0318,-0.03,-0.0295,-0.0275,-0.026,-0.0277,-0.0276,-0.0269,-0.0246,-0.0231,-0.0229,-0.0198,-0.0222,-0.022,-0.0219,-0.0218,-0.0131,-0.013,0,0,0,0,0,0,-0.0372,-0.036,-0.0311,-0.0307,-0.0341,-0.0298,-0.0293,-0.0286,-0.026,-0.0256,-0.0268,-0.0269,-0.0234,-0.0231,-0.0228,-0.0191,-0.022,-0.0218,-0.0217,-0.0132,-0.0131,-0.0129,0,0,0,0,0,0,-0.0373,-0.0368,-0.0313,-0.0332,-0.0324,-0.0296,-0.0289,-0.0284,-0.0275,-0.0253,-0.025,-0.0265,-0.0235,-0.0231,-0.0202,-0.019,-0.0217,-0.0216,-0.0133,-0.0132,-0.013,-0.0119,0,0,0,0,0,0,-0.0375,-0.0369,-0.0372,-0.0333,-0.0323,-0.0293,-0.0288,-0.0282,-0.0269,-0.0269,-0.0248,-0.0246,-0.0235,-0.0205,-0.02,-0.0188,-0.0214,-0.0135,-0.0133,-0.013,-0.0121,-0.0117,-0.0113,0,0,0,0,0,-0.0378,-0.0381,-0.0373,-0.0367,-0.0327,-0.0293,-0.0286,-0.0269,-0.0268,-0.0264,-0.0239,-0.0247,-0.0187,-0.0202,-0.0197,-0.0184,-0.0136,-0.0133,-0.0131,-0.0122,-0.0118,-0.0114,0,0,0,0,0,0,-0.0415,-0.0379,-0.0369,-0.0363,-0.0333,-0.0291,-0.0287,-0.0271,-0.0247,-0.0249,-0.0229,-0.0224,-0.0195,-0.0187,-0.0204,-0.015,-0.0163,-0.016,-0.0159,-0.0154,-0.0151,-0.0158,-0.0213,0,0,0,0,0,-0.0423,-0.0416,-0.0375,-0.0371,-0.0357,-0.0322,-0.0308,-0.0292,-0.0263,-0.0253,-0.0231,-0.0206,-0.0176,-0.0165,-0.0141,-0.0112,-0.0097,-0.01,-0.0096,-0.0094,-0.0094,-0.0049,-0.0042,-0.012,-0.012,-0.012,0,0,-0.0439,-0.0416,-0.0415,-0.0378,-0.0355,-0.0332,-0.0316,-0.0295,-0.0272,-0.0254,-0.022,-0.0194,-0.0165,-0.0129,-0.0116,-0.0124,-0.0062,-0.009,-0.0088,-0.009,-0.0045,-0.0038,-0.0031,-0.0118,-0.0119,-0.0119,0,0,-0.046,-0.0443,-0.0442,-0.0413,-0.0377,-0.0348,-0.0343,-0.0297,-0.0276,-0.0237,-0.0212,-0.0174,-0.0138,-0.0103,-0.0084,-0.0045,-0.0043,-0.0043,-0.0032,0.0012,0.0018,0.0024,0.0054,0.0062,-0.0043,-0.0043,-0.0043,0,-0.0483,-0.047,-0.0437,-0.042,-0.0399,-0.0356,-0.0343,-0.0306,-0.0255,-0.023,-0.023,-0.0143,-0.0122,-0.0063,-0.0048,-0.0037,-0.002,-0.0054,0.0015,0.0022,0.0027,0.0057,0.0066,-0.0042,-0.0042,-0.0042,-0.0042,0,-0.0492,-0.0481,-0.0476,-0.0438,-0.0411,-0.0392,-0.0336,-0.0304,-0.0273,-0.0233,-0.0171,-0.0122,-0.0074,-0.0055,-0.0042,0.0017,0.0013,0.0014,-0.0,0.0036,0.0065,0.0074,-0.004,-0.0041,-0.0041,-0.0041,0,0,-0.054,-0.0494,-0.0494,-0.0483,-0.0419,-0.0401,-0.0351,-0.0294,-0.0264,-0.0203,-0.0156,-0.0086,-0.0058,-0.0033,0.0001,0.0043,0.0102,0.0042,0.0044,0.0064,0.019,0.0164,0.0171,0.0112,0.0113,0.0115,0.0193,0,-0.0559,-0.0551,-0.0508,-0.0491,-0.0481,-0.0415,-0.0375,-0.0316,-0.0258,-0.0198,-0.0125,-0.0072,-0.0048,-0.0025,0.0027,0.0086,0.0127,0.008,0.0159,0.0161,0.0127,0.0181,0.012,0.02,0.0202,0.0204,0.0205,0,-0.0577,-0.0571,-0.0567,-0.0524,-0.0512,-0.049,-0.042,-0.0375,-0.0272,-0.0227,-0.0147,-0.0087,0.0004,0.0007,0.0132,0.0099,0.0141,0.0184,0.0188,0.0164,0.0153,0.0158,0.0222,0.022,0.0219,0.0218,0.0217,0,-0.0637,-0.0607,-0.0613,-0.0596,-0.0538,-0.0522,-0.0487,-0.0395,-0.0354,-0.0243,-0.0201,-0.0083,-0.0026,0.0059,0.0157,0.0144,0.0281,0.0275,0.0293,0.0291,0.0283,0.0276,0.0351,0.0351,0.0351,0.0351,0.0351,0,-0.0664,-0.0669,-0.065,-0.065,-0.0658,-0.0588,-0.0564,-0.0505,-0.0409,-0.0362,-0.0231,-0.0163,-0.0012,0.0091,0.0165,0.0264,0.0292,0.0306,0.0317,0.0287,0.0279,0.029,0.0282,0.0354,0.0353,0.0353,0.0352,0,-0.0717,-0.0702,-0.0716,-0.0689,-0.0689,-0.0696,-0.0639,-0.061,-0.0507,-0.0438,-0.0403,-0.0217,-0.0077,0.0067,0.0216,0.0268,0.0365,0.0385,0.0344,0.0349,0.0341,0.0333,0.042,0.042,0.042,0.042,0.042,0,-0.0736,-0.0755,-0.0775,-0.0802,-0.0795,-0.0791,-0.0787,-0.0688,-0.0648,-0.0474,-0.0448,-0.0271,-0.0151,0.0056,0.0202,0.0361,0.0367,0.0416,0.0382,0.035,0.0352,0.0344,0.0336,0.0419,0.0419,0.0419,0.0419,0,-0.0779,-0.0798,-0.0814,-0.0885,-0.0907,-0.0916,-0.0897,-0.0873,-0.0742,-0.0645,-0.0482,-0.0318,-0.0152,0.0036,0.0169,0.0276,0.0391,0.0415,0.0416,0.0384,0.0351,0.0351,0.0343,0.0419,0.0419,0.0419,0.0419,0,-0.0817,-0.0853,-0.0896,-0.0947,-0.0999,-0.1027,-0.1002,-0.0928,-0.0862,-0.0657,-0.0608,-0.0374,-0.0215,-0.0008,0.0112,0.0227,0.0242,0.0257,0.0265,0.0268,0.0199,0.0133,0.0154,0,0,0,0,0,-0.0841,-0.0885,-0.0951,-0.1005,-0.1063,-0.1085,-0.1065,-0.1014,-0.0889,-0.0799,-0.0694,-0.0532,-0.0271,-0.0127,-0.0024,0.0073,0.0233,0.0195,0.0245,0.0417,0.0418,0.0361,0,0,0,0,0,0,-0.0859,-0.0924,-0.0956,-0.1046,-0.1093,-0.114,-0.1135,-0.1053,-0.098,-0.0833,-0.0695,-0.0534,-0.0291,-0.0344,-0.0031,0.0016,0.0055,0.0347,0.0349,0.0417,0.0417,0.0418,0.036,0,0,0,0,0]}]]